Wind_Speed
3 5 7 8 10 11 11 11 12 14 16 16 17 18 18 18 18 18 19 19 20 21 21 22 22 22 22 21 22 22 23 23 23 23 22 23 23 22 21 21 22 21 20 19
7 9 9 8 11 12 11 12 13 15 18 18 18 18 18 18 16 18 19 20 21 22 22 22 22 22 22 22 22 22 22 22 22 21 22 22 21 21 21 21 21 21 19 18
9 9 9 10 11 12 11 11 13 16 18 18 18 18 18 18 17 17 19 19 21 23 22 22 22 22 22 22 21 21 20 20 20 20 21 20 20 20 19 20 20 19 19 18
9 8 8 10 10 11 11 11 14 15 15 15 16 16 18 19 19 20 20 19 21 23 23 23 23 22 21 21 21 20 18 18 18 19 19 19 19 18 18 18 18 17 18 17
9 10 10 10 10 11 11 11 13 13 14 13 15 16 18 21 20 19 20 21 21 22 22 22 23 22 21 20 20 20 18 18 18 18 18 18 18 17 16 17 16 16 16 16
9 8 9 10 11 10 10 10 11 11 13 14 14 17 20 20 21 20 21 22 21 22 22 22 22 22 21 20 20 18 18 17 17 18 17 16 16 15 15 16 16 16 15 15
9 7 10 11 11 10 10 10 10 11 13 14 15 16 19 19 20 20 20 21 21 21 22 22 21 22 22 21 20 18 18 18 18 17 16 15 15 16 15 15 16 15 14 13
10 10 11 11 10 11 11 10 11 12 12 13 14 17 20 21 22 20 20 20 20 20 20 20 22 23 22 21 20 19 18 18 18 17 16 16 16 16 16 15 15 14 13 13
11 11 11 12 11 11 11 10 12 13 12 14 15 17 18 20 21 19 19 19 19 21 20 21 22 23 22 22 21 19 18 17 17 17 17 16 15 15 14 14 14 14 14 14
11 11 11 13 11 10 10 11 11 12 12 13 14 17 20 19 19 21 21 20 19 20 21 21 21 22 23 22 20 19 17 17 17 17 15 14 14 14 14 14 14 14 14 14
12 12 11 11 11 10 10 11 12 12 12 13 15 19 19 21 21 22 21 20 20 20 21 23 22 22 22 21 19 17 16 16 16 15 14 14 14 14 14 14 14 14 14 14
12 12 13 12 12 11 12 12 13 15 14 15 16 19 19 20 21 22 22 21 21 21 21 22 21 21 20 19 17 16 15 15 15 15 14 14 14 14 14 15 15 15 15 15
14 13 13 12 12 12 12 14 15 15 16 16 16 19 20 20 20 20 21 21 21 21 21 21 21 20 19 17 16 15 15 15 15 15 14 14 15 15 15 16 15 15 16 16
15 14 14 13 12 12 13 14 15 16 16 16 15 18 20 20 19 20 20 21 21 21 21 21 20 19 18 17 16 15 15 15 15 15 15 15 15 16 16 16 16 16 16 16
16 16 16 15 15 15 16 16 15 15 16 15 16 17 19 20 20 20 20 21 21 21 21 21 20 19 18 17 17 16 16 16 16 16 15 15 15 16 15 16 16 15 16 16
17 17 18 18 16 17 17 17 16 16 16 16 17 18 20 20 20 19 20 21 21 20 20 20 19 18 18 17 17 16 16 16 16 16 15 15 15 15 14 15 15 16 16 17
18 18 18 18 17 17 17 16 16 17 17 17 18 18 19 20 20 20 20 20 20 20 19 19 19 18 18 17 17 16 16 16 16 15 15 14 14 14 14 15 16 16 16 17
21 20 20 18 18 20 18 17 17 19 19 19 19 18 19 20 20 20 21 20 20 19 19 19 18 18 17 17 16 16 16 16 15 15 15 15 15 15 15 16 16 15 16 16
21 20 20 19 19 19 18 18 18 19 20 19 19 19 19 19 20 21 20 20 20 20 19 18 18 18 17 17 16 17 17 16 16 15 15 16 16 16 16 16 16 16 17 17
21 22 21 21 20 19 20 19 18 19 20 19 18 18 18 20 18 20 20 20 20 19 18 17 17 18 18 17 17 17 17 17 17 17 17 16 16 16 16 17 17 17 18 18
22 22 23 22 21 21 22 21 20 20 21 20 19 19 20 19 19 19 20 20 19 19 18 18 18 18 18 18 17 17 17 17 18 18 17 16 17 17 17 17 17 17 17 17
24 24 24 23 23 22 22 22 22 21 21 21 20 20 20 19 20 20 21 21 20 20 19 19 19 19 19 19 18 18 18 18 18 18 18 17 17 18 18 18 18 17 17 17
25 24 24 25 25 25 25 24 24 23 23 22 21 21 21 22 22 22 22 22 23 22 21 21 20 20 20 20 20 19 19 19 19 19 18 18 18 18 19 19 18 18 18 18
27 26 27 27 27 26 26 25 25 25 24 24 22 21 22 23 23 23 24 24 23 23 23 23 22 21 21 20 20 20 20 19 19 19 19 19 19 19 18 18 19 19 18 18
31 29 29 29 29 28 28 27 26 26 26 26 25 24 25 25 25 25 25 25 25 25 24 23 22 22 21 21 20 20 20 20 20 20 20 20 19 19 19 19 20 19 18 18
31 31 31 31 31 30 29 28 27 27 27 27 27 26 26 26 26 26 26 26 26 26 25 23 23 23 22 21 21 20 21 20 20 19 19 19 18 19 19 19 19 18 18 18
Wind_Direction
234 250 252 247 254 259 255 251 253 262 271 276 277 280 289 293 294 296 299 301 302 303 302 303 302 303 302 301 300 297 296 296 297 296 297 297 298 296 293 291 292 293 293 289
254 256 257 258 258 261 256 257 265 268 267 271 275 278 281 288 293 298 299 302 304 305 304 304 304 303 303 303 301 297 295 296 297 297 298 297 298 300 296 294 293 293 293 290
249 252 260 260 259 261 260 262 268 268 267 273 277 279 281 285 291 293 296 301 304 305 304 305 306 306 306 307 304 300 300 299 297 298 298 300 301 301 298 296 296 293 290 289
250 253 259 261 260 263 264 269 269 268 273 278 279 283 283 284 293 299 299 300 303 305 305 307 309 308 308 309 306 302 301 300 298 300 301 302 303 301 299 296 297 295 292 291
253 256 256 259 262 261 266 269 277 278 281 282 284 283 281 284 294 302 303 303 302 304 306 308 309 311 311 311 308 302 298 301 302 303 304 304 302 300 298 299 298 297 295 292
265 264 265 260 261 264 271 275 279 287 288 283 282 279 281 287 296 299 300 301 302 301 303 306 308 310 311 311 308 305 302 301 302 303 304 305 303 302 298 301 300 299 299 295
268 265 264 260 268 270 264 268 276 281 280 278 277 282 285 293 298 301 302 301 300 301 303 306 311 312 311 311 308 303 303 303 303 301 301 301 300 301 297 298 301 299 300 302
259 253 253 260 258 262 267 269 271 279 280 287 285 280 289 295 299 302 301 303 303 304 305 308 311 314 312 310 307 304 302 303 303 302 299 298 298 297 295 296 298 300 298 301
249 252 259 265 261 262 271 270 267 272 280 284 280 280 285 294 296 301 304 304 307 308 309 310 310 311 311 309 307 306 303 302 303 303 300 295 295 297 297 297 297 301 300 301
251 255 262 272 276 278 281 281 281 276 283 285 291 289 289 295 304 308 308 309 309 309 309 311 311 310 311 310 307 305 304 303 303 303 301 297 296 294 296 297 298 300 301 302
256 261 269 276 280 283 288 281 273 269 269 272 280 283 288 296 300 304 306 307 310 311 311 313 312 311 312 310 308 307 306 305 304 303 301 300 299 295 295 295 296 298 300 303
264 266 265 263 267 277 280 278 274 274 272 272 277 280 285 293 297 300 304 306 308 311 313 314 315 315 314 312 312 309 307 307 307 305 302 299 298 294 292 292 294 296 298 299
261 263 264 266 267 275 275 277 276 276 276 279 282 285 290 292 291 296 300 303 307 310 313 315 318 318 317 314 313 310 308 308 308 306 303 301 299 297 293 291 292 295 297 299
260 264 265 264 261 268 273 279 283 282 278 279 281 284 291 292 295 298 301 303 306 310 312 314 317 317 316 313 311 309 308 309 309 307 306 304 300 297 294 292 292 296 298 301
258 261 267 272 270 271 275 275 278 280 278 278 280 283 287 292 296 298 303 304 305 308 309 311 314 316 316 314 311 308 308 309 309 307 305 305 302 297 293 293 293 296 300 302
261 263 267 272 273 271 271 273 276 278 278 278 279 282 287 289 293 297 301 302 305 308 309 310 312 313 314 314 313 310 308 309 309 309 308 305 303 300 296 295 296 298 301 302
269 267 268 274 277 270 272 273 274 277 276 277 278 280 284 288 292 295 297 299 303 307 307 310 311 312 313 313 313 313 312 309 309 308 308 308 307 303 300 299 298 299 301 303
267 267 269 271 273 272 276 273 274 275 274 275 276 280 285 286 290 293 295 298 302 303 304 306 306 307 310 310 310 310 312 312 310 308 306 305 305 302 300 299 300 299 302 303
265 267 267 269 272 273 276 273 273 273 276 275 276 282 285 287 291 292 295 298 301 302 304 305 304 306 307 306 305 306 307 308 308 307 306 303 302 299 299 301 300 298 299 302
261 265 267 267 268 267 269 270 271 273 275 277 278 279 281 286 289 293 297 300 302 303 303 302 303 303 304 304 303 304 304 304 303 303 305 303 300 298 299 301 300 299 298 298
261 263 265 267 267 269 269 268 270 271 274 276 277 278 282 284 289 293 297 299 300 301 302 302 302 301 302 304 303 302 301 301 302 302 301 298 296 297 298 300 300 299 298 298
257 262 265 266 265 267 267 268 268 269 270 273 275 279 282 285 289 291 293 296 297 298 299 299 299 299 299 301 301 300 299 300 301 300 299 294 293 295 297 297 297 297 297 297
254 258 260 261 264 268 268 267 269 270 271 272 274 279 282 286 288 290 291 293 294 295 296 297 297 298 298 298 297 298 300 301 300 300 299 295 292 295 298 298 296 296 296 297
254 259 260 263 262 263 266 269 271 272 272 272 274 278 280 284 286 287 289 289 290 292 293 294 294 296 297 296 295 295 297 299 299 297 297 296 294 296 296 296 297 297 296 297
253 259 260 260 264 266 267 269 270 270 270 272 275 276 280 283 285 287 287 288 289 291 290 293 292 293 295 293 292 292 293 295 297 298 297 296 295 294 293 294 296 295 295 297
255 257 258 261 265 269 270 271 271 270 270 271 273 276 278 280 283 285 285 286 287 287 287 290 292 291 291 291 291 291 290 291 294 296 297 296 295 294 293 293 293 294 295 295
Height
5848 5850 5850 5852 5853 5854 5855 5856 5856 5855 5854 5853 5853 5851 5848 5848 5846 5845 5843 5842 5840 5838 5836 5834 5831 5829 5827 5825 5823 5822 5820 5819 5817 5815 5813 5810 5809 5807 5805 5803 5801 5800 5798 5797
5848 5849 5851 5851 5853 5853 5853 5854 5854 5853 5852 5852 5850 5848 5847 5844 5842 5842 5840 5839 5836 5834 5832 5829 5827 5825 5823 5821 5819 5817 5815 5813 5811 5810 5808 5805 5803 5802 5800 5798 5796 5795 5793 5792
5847 5849 5849 5850 5850 5851 5851 5851 5850 5850 5848 5848 5847 5845 5843 5841 5839 5838 5837 5835 5833 5831 5828 5825 5822 5820 5818 5816 5814 5812 5810 5809 5807 5805 5803 5801 5799 5797 5795 5794 5792 5790 5789 5788
5846 5847 5848 5848 5848 5848 5848 5848 5848 5847 5846 5845 5845 5842 5839 5836 5835 5834 5833 5832 5830 5827 5824 5821 5818 5816 5814 5812 5809 5808 5806 5804 5802 5800 5798 5796 5794 5793 5791 5790 5788 5787 5786 5784
5845 5845 5846 5846 5847 5846 5846 5846 5845 5844 5843 5842 5841 5839 5837 5834 5832 5831 5830 5828 5826 5823 5820 5818 5815 5813 5810 5808 5805 5803 5801 5800 5798 5796 5795 5793 5791 5789 5788 5786 5785 5784 5782 5781
5842 5843 5843 5844 5844 5844 5844 5844 5843 5841 5840 5839 5839 5837 5834 5831 5830 5829 5826 5825 5823 5819 5816 5814 5812 5810 5806 5804 5802 5799 5797 5795 5794 5792 5791 5789 5787 5786 5785 5783 5782 5781 5780 5778
5840 5841 5841 5841 5841 5842 5841 5841 5841 5839 5838 5837 5835 5833 5831 5828 5827 5826 5824 5822 5819 5816 5813 5811 5808 5806 5803 5800 5798 5796 5794 5792 5791 5789 5787 5786 5784 5783 5782 5780 5779 5778 5776 5775
5838 5839 5838 5838 5838 5838 5838 5838 5838 5837 5836 5834 5831 5830 5829 5826 5825 5823 5821 5819 5816 5813 5809 5807 5805 5802 5799 5796 5795 5792 5791 5789 5787 5785 5784 5782 5781 5779 5778 5777 5776 5775 5773 5772
5835 5836 5836 5836 5835 5835 5835 5834 5834 5833 5832 5832 5829 5826 5825 5822 5821 5819 5817 5815 5813 5810 5806 5804 5801 5799 5796 5793 5791 5789 5787 5785 5783 5781 5780 5778 5777 5776 5774 5774 5773 5771 5770 5769
5832 5833 5833 5832 5832 5832 5833 5832 5831 5830 5829 5828 5827 5823 5821 5819 5817 5815 5813 5811 5809 5806 5803 5800 5798 5795 5792 5789 5787 5785 5783 5781 5780 5778 5777 5775 5774 5773 5772 5771 5770 5769 5767 5766
5829 5829 5830 5830 5830 5830 5830 5829 5828 5827 5826 5825 5824 5823 5818 5816 5815 5813 5810 5808 5806 5803 5800 5797 5794 5791 5789 5785 5783 5781 5779 5777 5776 5775 5773 5772 5771 5770 5768 5768 5767 5766 5764 5763
5826 5826 5826 5827 5827 5827 5826 5825 5824 5823 5822 5821 5821 5820 5815 5813 5812 5810 5807 5805 5802 5799 5797 5793 5790 5787 5785 5782 5780 5778 5776 5775 5773 5771 5770 5769 5767 5766 5765 5765 5764 5763 5761 5760
5823 5823 5823 5823 5824 5823 5822 5822 5821 5819 5818 5817 5817 5816 5811 5810 5808 5806 5804 5801 5798 5796 5793 5790 5787 5784 5782 5779 5777 5775 5773 5772 5770 5768 5767 5765 5764 5763 5762 5761 5760 5759 5757 5756
5819 5819 5820 5820 5819 5819 5818 5818 5817 5816 5814 5814 5813 5811 5808 5806 5804 5802 5800 5798 5795 5792 5789 5787 5784 5781 5779 5776 5774 5772 5770 5769 5767 5765 5764 5762 5761 5759 5758 5757 5756 5755 5754 5752
5814 5815 5815 5815 5815 5814 5814 5814 5813 5812 5811 5810 5809 5807 5805 5802 5800 5797 5795 5794 5791 5789 5786 5783 5781 5778 5776 5773 5771 5769 5767 5765 5763 5762 5760 5759 5757 5756 5754 5753 5752 5751 5750 5749
5809 5810 5810 5811 5811 5810 5810 5809 5809 5808 5806 5806 5805 5803 5800 5797 5796 5794 5792 5790 5787 5785 5782 5780 5777 5775 5773 5770 5768 5766 5764 5762 5760 5758 5757 5755 5753 5752 5751 5750 5749 5748 5746 5745
5803 5804 5805 5806 5805 5805 5805 5805 5804 5803 5802 5802 5800 5799 5796 5794 5792 5791 5788 5786 5783 5781 5779 5776 5774 5772 5770 5767 5765 5763 5761 5759 5757 5755 5753 5752 5750 5749 5747 5746 5745 5744 5742 5741
5799 5799 5800 5801 5801 5800 5802 5800 5799 5798 5797 5796 5795 5793 5791 5790 5788 5786 5784 5782 5779 5777 5775 5772 5770 5768 5766 5764 5762 5760 5758 5756 5754 5752 5750 5748 5747 5745 5744 5742 5741 5740 5739 5737
5794 5794 5795 5796 5795 5795 5796 5794 5793 5792 5791 5791 5790 5788 5786 5784 5783 5781 5779 5777 5775 5773 5771 5768 5766 5764 5762 5760 5758 5756 5754 5752 5751 5749 5747 5745 5743 5742 5740 5739 5737 5736 5735 5733
5788 5789 5790 5790 5790 5790 5791 5789 5787 5788 5786 5786 5784 5783 5782 5780 5779 5777 5775 5773 5771 5769 5767 5764 5762 5760 5759 5757 5755 5753 5751 5749 5747 5745 5743 5741 5739 5738 5737 5735 5734 5732 5730 5729
5782 5783 5783 5783 5784 5783 5783 5783 5783 5783 5782 5780 5779 5778 5776 5775 5774 5772 5770 5768 5766 5765 5763 5761 5758 5756 5755 5753 5751 5749 5747 5745 5743 5741 5739 5737 5736 5734 5733 5731 5730 5728 5726 5724
5776 5777 5777 5777 5778 5779 5777 5777 5777 5776 5774 5774 5773 5772 5771 5770 5769 5767 5766 5764 5762 5760 5758 5756 5754 5752 5750 5748 5747 5745 5742 5741 5739 5737 5735 5733 5732 5730 5728 5727 5725 5723 5722 5720
5769 5771 5771 5772 5773 5772 5771 5770 5770 5769 5769 5768 5767 5767 5766 5765 5764 5762 5760 5758 5756 5755 5753 5751 5749 5748 5745 5743 5742 5740 5738 5736 5734 5732 5730 5728 5727 5726 5724 5722 5720 5719 5717 5715
5762 5763 5764 5764 5763 5763 5763 5764 5764 5763 5762 5762 5760 5760 5759 5758 5757 5756 5755 5753 5750 5749 5748 5746 5744 5742 5740 5738 5737 5735 5733 5731 5729 5727 5726 5724 5722 5720 5719 5717 5716 5714 5712 5711
5755 5755 5756 5756 5756 5756 5756 5756 5756 5756 5755 5755 5754 5753 5752 5752 5751 5749 5748 5746 5745 5743 5741 5740 5738 5736 5734 5733 5731 5730 5728 5726 5724 5722 5720 5719 5717 5715 5714 5712 5711 5709 5707 5706
5747 5748 5749 5748 5748 5749 5749 5749 5748 5748 5748 5747 5747 5746 5745 5744 5743 5742 5741 5739 5738 5736 5734 5733 5732 5730 5728 5727 5726 5724 5722 5721 5719 5718 5716 5714 5712 5710 5709 5707 5706 5704 5702 5701